When you browse on this site, cookies collect data to enhance your experience and personalize the content and advertising you see.
Visit our Privacy Policy to learn more. By continuing to use the site, you agree to this use of cookies and data.
  • In Romania
  • List of Countries
  • For 7 days
  • Water Temperature
  • Satellite Maps
  • Weather Map
  • Weather Widgets
  • user-avatar
    Login

    Hourly Weather Arroyo

    Today, 22 February, Friday

    Time Temperature Precipitation Wind Pressure Humidity
    00:00 +9°C° 0 mm 1 mps 737 mmHg 76%
    01:00 +8°C° 0 mm 1 mps 737 mmHg 77%
    02:00 +8°C° 0 mm 1 mps 737 mmHg 78%
    03:00 +8°C° 0 mm 1 mps 737 mmHg 79%
    04:00 +6°C° 0 mm 2 mps 736 mmHg 79%
    05:00 +6°C° 0 mm 2 mps 736 mmHg 79%
    06:00 +6°C° 0 mm 2 mps 736 mmHg 79%
    07:00 +7°C° 0 mm 2 mps 737 mmHg 75%
    08:00 +8°C° 0 mm 2 mps 737 mmHg 70%
    09:00 +10°C° 0 mm 2 mps 737 mmHg 66%
    10:00 +12°C° 0 mm 3 mps 737 mmHg 59%
    11:00 +16°C° 0 mm 3 mps 737 mmHg 52%
    12:00 +18°C° 0 mm 4 mps 737 mmHg 45%
    13:00 +19°C° 0 mm 3 mps 737 mmHg 44%
    14:00 +19°C° 0 mm 3 mps 736 mmHg 42%
    15:00 +20°C° 0 mm 3 mps 736 mmHg 40%
    16:00 +18°C° 0 mm 2 mps 736 mmHg 46%
    17:00 +16°C° 0 mm 2 mps 736 mmHg 53%
    18:00 +14°C° 0 mm 1 mps 736 mmHg 59%
    19:00 +13°C° 0 mm 1 mps 736 mmHg 61%
    20:00 +12°C° 0 mm 1 mps 736 mmHg 64%
    21:00 +9°C° 0 mm 0 mps 737 mmHg 67%
    22:00 +9°C° 0 mm 0 mps 737 mmHg 68%
    23:00 +9°C° 0 mm 0 mps 737 mmHg 70%

    Tomorrow, 23 February, Saturday

    Time Temperature Precipitation Wind Pressure Humidity
    00:00 +8°C° 0 mm 0 mps 737 mmHg 71%
    01:00 +8°C° 0 mm 0 mps 737 mmHg 73%
    02:00 +8°C° 0 mm 0 mps 737 mmHg 74%
    03:00 +7°C° 0 mm 0 mps 736 mmHg 76%
    04:00 +7°C° 0 mm 0 mps 737 mmHg 77%
    05:00 +7°C° 0 mm 0 mps 737 mmHg 78%
    06:00 +6°C° 0 mm 0 mps 737 mmHg 78%
    07:00 +8°C° 0 mm 0 mps 737 mmHg 74%
    08:00 +9°C° 0 mm 0 mps 737 mmHg 70%
    09:00 +11°C° 0 mm 0 mps 738 mmHg 66%
    10:00 +13°C° 0 mm 0 mps 738 mmHg 60%
    11:00 +15°C° 0 mm 0 mps 738 mmHg 54%
    12:00 +17°C° 0 mm 0 mps 738 mmHg 48%
    13:00 +20°C° 0 mm 1 mps 737 mmHg 47%
    14:00 +20°C° 0 mm 1 mps 737 mmHg 45%
    15:00 +21°C° 0 mm 1 mps 737 mmHg 44%
    16:00 +19°C° 0 mm 1 mps 737 mmHg 52%
    17:00 +16°C° 0 mm 1 mps 736 mmHg 60%
    18:00 +14°C° 0 mm 1 mps 736 mmHg 68%
    19:00 +13°C° 0 mm 1 mps 736 mmHg 70%
    20:00 +12°C° 0 mm 1 mps 737 mmHg 72%
    21:00 +11°C° 0 mm 1 mps 737 mmHg 74%
    22:00 +10°C° 0 mm 1 mps 737 mmHg 75%
    23:00 +10°C° 0 mm 1 mps 737 mmHg 76%

    Day after tomorrow, 24 February, Sunday

    Time Temperature Precipitation Wind Pressure Humidity
    00:00 +9°C° 0 mm 1 mps 736 mmHg 77%
    01:00 +9°C° 0 mm 1 mps 736 mmHg 77%
    02:00 +9°C° 0 mm 1 mps 736 mmHg 77%
    03:00 +8°C° 0 mm 1 mps 736 mmHg 77%
    04:00 +8°C° 0 mm 1 mps 736 mmHg 76%
    05:00 +7°C° 0 mm 1 mps 736 mmHg 76%
    06:00 +7°C° 0 mm 1 mps 736 mmHg 75%
    07:00 +8°C° 0 mm 1 mps 736 mmHg 71%
    08:00 +10°C° 0 mm 1 mps 737 mmHg 67%
    09:00 +11°C° 0 mm 1 mps 737 mmHg 62%
    10:00 +14°C° 0 mm 1 mps 737 mmHg 57%
    11:00 +16°C° 0 mm 2 mps 737 mmHg 51%
    12:00 +19°C° 0 mm 2 mps 737 mmHg 46%
    13:00 +20°C° 0 mm 2 mps 736 mmHg 43%
    14:00 +20°C° 0 mm 2 mps 736 mmHg 41%
    15:00 +21°C° 0 mm 2 mps 735 mmHg 39%
    16:00 +19°C° 0 mm 2 mps 735 mmHg 46%
    17:00 +18°C° 0 mm 1 mps 735 mmHg 53%
    18:00 +15°C° 0 mm 1 mps 735 mmHg 60%
    19:00 +14°C° 0 mm 1 mps 735 mmHg 61%
    20:00 +13°C° 0 mm 1 mps 736 mmHg 62%
    21:00 +12°C° 0 mm 1 mps 736 mmHg 63%
    22:00 +11°C° 0 mm 1 mps 736 mmHg 62%
    23:00 +10°C° 0 mm 1 mps 736 mmHg 62%

    25 February, Monday

    Time Temperature Precipitation Wind Pressure Humidity
    00:00 +10°C° 0 mm 1 mps 736 mmHg 61%
    01:00 +9°C° 0 mm 1 mps 736 mmHg 61%
    02:00 +9°C° 0 mm 1 mps 736 mmHg 60%
    03:00 +9°C° 0 mm 1 mps 736 mmHg 60%
    04:00 +7°C° 0 mm 2 mps 736 mmHg 59%
    05:00 +7°C° 0 mm 2 mps 736 mmHg 59%
    06:00 +7°C° 0 mm 2 mps 736 mmHg 59%
    07:00 +8°C° 0 mm 2 mps 736 mmHg 59%
    08:00 +10°C° 0 mm 2 mps 736 mmHg 59%
    09:00 +11°C° 0 mm 3 mps 737 mmHg 59%
    10:00 +13°C° 0 mm 3 mps 737 mmHg 55%
    11:00 +16°C° 0 mm 3 mps 737 mmHg 51%
    12:00 +19°C° 0 mm 3 mps 737 mmHg 46%
    13:00 +19°C° 0 mm 3 mps 736 mmHg 45%
    14:00 +20°C° 0 mm 3 mps 736 mmHg 45%
    15:00 +20°C° 0 mm 3 mps 735 mmHg 44%
    16:00 +19°C° 0 mm 2 mps 735 mmHg 51%
    17:00 +17°C° 0 mm 2 mps 734 mmHg 58%
    18:00 +15°C° 0 mm 1 mps 734 mmHg 65%
    19:00 +14°C° 0 mm 2 mps 734 mmHg 66%
    20:00 +13°C° 0 mm 2 mps 734 mmHg 68%
    21:00 +10°C° 0 mm 2 mps 734 mmHg 70%
    22:00 +10°C° 0 mm 2 mps 734 mmHg 69%
    23:00 +9°C° 0 mm 2 mps 734 mmHg 69%

    26 February, Tuesday

    Time Temperature Precipitation Wind Pressure Humidity
    00:00 +9°C° 0 mm 2 mps 734 mmHg 68%
    01:00 +8°C° 0 mm 2 mps 734 mmHg 69%
    02:00 +8°C° 0 mm 2 mps 734 mmHg 70%
    03:00 +8°C° 0 mm 2 mps 733 mmHg 71%
    04:00 +7°C° 0 mm 2 mps 733 mmHg 72%
    05:00 +7°C° 0 mm 2 mps 733 mmHg 73%
    06:00 +7°C° 0 mm 2 mps 733 mmHg 74%
    07:00 +8°C° 0 mm 3 mps 733 mmHg 71%
    08:00 +9°C° 0 mm 3 mps 733 mmHg 67%
    09:00 +10°C° 0 mm 3 mps 733 mmHg 64%
    10:00 +12°C° 0 mm 4 mps 733 mmHg 58%
    11:00 +14°C° 0 mm 4 mps 733 mmHg 53%
    12:00 +17°C° 0 mm 4 mps 733 mmHg 47%
    13:00 +18°C° 0 mm 4 mps 733 mmHg 47%
    14:00 +19°C° 0 mm 4 mps 733 mmHg 46%
    15:00 +19°C° 0 mm 4 mps 732 mmHg 46%
    16:00 +18°C° 0 mm 3 mps 732 mmHg 52%
    17:00 +16°C° 0 mm 3 mps 732 mmHg 58%
    18:00 +15°C° 0 mm 2 mps 732 mmHg 64%
    19:00 +13°C° 0 mm 2 mps 732 mmHg 65%
    20:00 +12°C° 0 mm 2 mps 732 mmHg 67%
    21:00 +10°C° 0 mm 2 mps 733 mmHg 68%
    22:00 +9°C° 0 mm 2 mps 733 mmHg 71%
    23:00 +8°C° 0 mm 2 mps 733 mmHg 74%

    27 February, Wednesday

    Time Temperature Precipitation Wind Pressure Humidity
    00:00 +8°C° 0 mm 2 mps 733 mmHg 76%
    01:00 +7°C° 0 mm 2 mps 733 mmHg 77%
    02:00 +7°C° 0 mm 2 mps 733 mmHg 78%
    03:00 +6°C° 0 mm 2 mps 733 mmHg 80%
    04:00 +6°C° 0 mm 2 mps 733 mmHg 78%
    05:00 +6°C° 0 mm 2 mps 733 mmHg 77%
    06:00 +5°C° 0 mm 2 mps 733 mmHg 76%
    07:00 +7°C° 0 mm 2 mps 734 mmHg 72%
    08:00 +8°C° 0 mm 2 mps 734 mmHg 67%
    09:00 +9°C° 0 mm 3 mps 734 mmHg 63%
    10:00 +11°C° 0 mm 3 mps 734 mmHg 59%
    11:00 +13°C° 0 mm 3 mps 734 mmHg 54%
    12:00 +16°C° 0 mm 3 mps 734 mmHg 49%
    13:00 +17°C° 0 mm 3 mps 733 mmHg 48%
    14:00 +18°C° 0 mm 3 mps 733 mmHg 46%
    15:00 +18°C° 0 mm 3 mps 733 mmHg 45%
    16:00 +17°C° 0 mm 2 mps 733 mmHg 52%
    17:00 +15°C° 0 mm 2 mps 732 mmHg 60%
    18:00 +14°C° 0 mm 2 mps 732 mmHg 68%
    19:00 +12°C° 0 mm 1 mps 733 mmHg 73%
    20:00 +11°C° 0 mm 1 mps 733 mmHg 79%
    21:00 +9°C° 0 mm 0 mps 733 mmHg 84%
    22:00 +9°C° 0 mm 0 mps 733 mmHg 85%
    23:00 +8°C° 0 mm 0 mps 733 mmHg 87%
    Show more